• en France
  • Liste des pays
  • À 7 jours
  • Température de l'eau
  • Carte satellitaire
  • Carte météo
  • Widgets météo
  • user-avatar
    Se connecter

    Météo par heure à Kalinowa

    Ce jour, 20 Juin, Mercredi

    Heure Température Précipitation Vent Pression Humidité
    00:00 +17°C° 0 mm 2 m/s 757 mmHg 84%
    01:00 +17°C° 0 mm 2 m/s 757 mmHg 83%
    02:00 +17°C° 0 mm 2 m/s 757 mmHg 85%
    03:00 +17°C° 0 mm 2 m/s 757 mmHg 86%
    04:00 +16°C° 0 mm 1 m/s 757 mmHg 88%
    05:00 +18°C° 0 mm 2 m/s 758 mmHg 83%
    06:00 +20°C° 0 mm 2 m/s 758 mmHg 78%
    07:00 +21°C° 0 mm 2 m/s 758 mmHg 73%
    08:00 +23°C° 0 mm 2 m/s 758 mmHg 68%
    09:00 +24°C° 0 mm 3 m/s 758 mmHg 63%
    10:00 +25°C° 0 mm 3 m/s 758 mmHg 58%
    11:00 +26°C° 0 mm 3 m/s 757 mmHg 56%
    12:00 +27°C° 0 mm 3 m/s 757 mmHg 54%
    13:00 +28°C° 0 mm 3 m/s 757 mmHg 52%
    14:00 +27°C° 0 mm 3 m/s 756 mmHg 53%
    15:00 +27°C° 0 mm 3 m/s 756 mmHg 54%
    16:00 +27°C° 0 mm 2 m/s 756 mmHg 56%
    17:00 +27°C° 0 mm 2 m/s 755 mmHg 60%
    18:00 +26°C° 0 mm 1 m/s 755 mmHg 64%
    19:00 +25°C° 0 mm 1 m/s 755 mmHg 68%
    20:00 +24°C° 0 mm 1 m/s 755 mmHg 70%
    21:00 +23°C° 0 mm 1 m/s 755 mmHg 72%
    22:00 +21°C° 0 mm 2 m/s 754 mmHg 74%
    23:00 +21°C° 0 mm 2 m/s 754 mmHg 74%

    Demain, 21 Juin, Jeudi

    Heure Température Précipitation Vent Pression Humidité
    00:00 +20°C° 0 mm 2 m/s 754 mmHg 75%
    01:00 +20°C° 0 mm 3 m/s 754 mmHg 76%
    02:00 +20°C° 0 mm 3 m/s 753 mmHg 77%
    03:00 +20°C° 0 mm 3 m/s 753 mmHg 78%
    04:00 +19°C° 0 mm 3 m/s 752 mmHg 79%
    05:00 +21°C° 0 mm 3 m/s 752 mmHg 76%
    06:00 +22°C° 0 mm 4 m/s 752 mmHg 73%
    07:00 +23°C° 0 mm 4 m/s 751 mmHg 71%
    08:00 +26°C° 0,1 mm 4 m/s 751 mmHg 66%
    09:00 +27°C° 0,1 mm 4 m/s 750 mmHg 61%
    10:00 +28°C° 0,1 mm 4 m/s 749 mmHg 56%
    11:00 +29°C° 0 mm 5 m/s 748 mmHg 54%
    12:00 +30°C° 0 mm 5 m/s 748 mmHg 52%
    13:00 +30°C° 0 mm 6 m/s 747 mmHg 50%
    14:00 +30°C° 0 mm 6 m/s 746 mmHg 52%
    15:00 +30°C° 0 mm 5 m/s 746 mmHg 55%
    16:00 +29°C° 0 mm 5 m/s 745 mmHg 57%
    17:00 +26°C° 0,4 mm 6 m/s 745 mmHg 64%
    18:00 +23°C° 0,4 mm 7 m/s 745 mmHg 72%
    19:00 +20°C° 0,4 mm 8 m/s 746 mmHg 80%
    20:00 +17°C° 0,1 mm 7 m/s 746 mmHg 76%
    21:00 +16°C° 0,1 mm 7 m/s 747 mmHg 73%
    22:00 +14°C° 0,1 mm 7 m/s 748 mmHg 69%
    23:00 +12°C° 0 mm 7 m/s 749 mmHg 70%

    Après-demain, 22 Juin, Vendredi

    Heure Température Précipitation Vent Pression Humidité
    00:00 +11°C° 0 mm 7 m/s 749 mmHg 71%
    01:00 +10°C° 0 mm 7 m/s 750 mmHg 71%
    02:00 +9°C° 0 mm 6 m/s 750 mmHg 72%
    03:00 +9°C° 0 mm 6 m/s 751 mmHg 72%
    04:00 +8°C° 0 mm 5 m/s 751 mmHg 73%
    05:00 +9°C° 0 mm 6 m/s 751 mmHg 70%
    06:00 +10°C° 0 mm 7 m/s 751 mmHg 68%
    07:00 +11°C° 0 mm 8 m/s 751 mmHg 65%
    08:00 +12°C° 0 mm 8 m/s 751 mmHg 64%
    09:00 +12°C° 0 mm 8 m/s 751 mmHg 64%
    10:00 +12°C° 0 mm 8 m/s 751 mmHg 63%
    11:00 +13°C° 0,2 mm 8 m/s 751 mmHg 62%
    12:00 +15°C° 0,2 mm 8 m/s 751 mmHg 61%
    13:00 +16°C° 0,2 mm 8 m/s 751 mmHg 60%
    14:00 +16°C° 0,4 mm 8 m/s 751 mmHg 61%
    15:00 +17°C° 0,4 mm 7 m/s 751 mmHg 61%
    16:00 +17°C° 0,4 mm 7 m/s 751 mmHg 61%
    17:00 +16°C° 0,1 mm 6 m/s 751 mmHg 64%
    18:00 +16°C° 0,1 mm 5 m/s 751 mmHg 67%
    19:00 +15°C° 0,1 mm 4 m/s 752 mmHg 70%
    20:00 +14°C° 0 mm 4 m/s 752 mmHg 74%
    21:00 +12°C° 0 mm 4 m/s 752 mmHg 78%
    22:00 +11°C° 0 mm 4 m/s 752 mmHg 82%
    23:00 +11°C° 0 mm 4 m/s 752 mmHg 82%

    23 Juin, Samedi

    Heure Température Précipitation Vent Pression Humidité
    00:00 +11°C° 0 mm 4 m/s 752 mmHg 83%
    01:00 +11°C° 0 mm 4 m/s 752 mmHg 84%
    02:00 +9°C° 0 mm 5 m/s 752 mmHg 86%
    03:00 +9°C° 0 mm 5 m/s 752 mmHg 88%
    04:00 +8°C° 0 mm 5 m/s 752 mmHg 91%
    05:00 +9°C° 0 mm 5 m/s 752 mmHg 87%
    06:00 +10°C° 0 mm 6 m/s 752 mmHg 83%
    07:00 +11°C° 0 mm 7 m/s 752 mmHg 79%
    08:00 +12°C° 0,1 mm 7 m/s 752 mmHg 75%
    09:00 +12°C° 0,1 mm 7 m/s 752 mmHg 72%
    10:00 +14°C° 0,1 mm 7 m/s 752 mmHg 68%
    11:00 +14°C° 0 mm 7 m/s 752 mmHg 66%
    12:00 +15°C° 0 mm 7 m/s 752 mmHg 64%
    13:00 +15°C° 0 mm 7 m/s 752 mmHg 62%
    14:00 +16°C° 0,1 mm 7 m/s 752 mmHg 62%
    15:00 +16°C° 0,1 mm 7 m/s 752 mmHg 63%
    16:00 +16°C° 0,1 mm 7 m/s 752 mmHg 63%
    17:00 +16°C° 0,1 mm 6 m/s 752 mmHg 66%
    18:00 +15°C° 0,1 mm 5 m/s 753 mmHg 70%
    19:00 +15°C° 0,1 mm 4 m/s 753 mmHg 73%
    20:00 +14°C° 0 mm 4 m/s 753 mmHg 76%
    21:00 +13°C° 0 mm 4 m/s 753 mmHg 78%
    22:00 +13°C° 0 mm 4 m/s 754 mmHg 81%
    23:00 +12°C° 0 mm 4 m/s 754 mmHg 83%

    24 Juin, Dimanche

    Heure Température Précipitation Vent Pression Humidité
    00:00 +12°C° 0 mm 4 m/s 754 mmHg 86%
    01:00 +11°C° 0 mm 4 m/s 754 mmHg 89%
    02:00 +11°C° 0 mm 4 m/s 754 mmHg 91%
    03:00 +10°C° 0 mm 4 m/s 754 mmHg 93%
    04:00 +10°C° 0 mm 3 m/s 754 mmHg 95%
    05:00 +11°C° 0 mm 4 m/s 754 mmHg 91%
    06:00 +12°C° 0 mm 4 m/s 754 mmHg 86%
    07:00 +14°C° 0 mm 4 m/s 755 mmHg 82%
    08:00 +15°C° 0,1 mm 4 m/s 755 mmHg 75%
    09:00 +18°C° 0,1 mm 4 m/s 755 mmHg 68%
    10:00 +19°C° 0,1 mm 4 m/s 755 mmHg 61%
    11:00 +20°C° 0,2 mm 4 m/s 755 mmHg 58%
    12:00 +21°C° 0,2 mm 4 m/s 755 mmHg 56%
    13:00 +21°C° 0,2 mm 4 m/s 755 mmHg 53%
    14:00 +21°C° 0,2 mm 4 m/s 755 mmHg 54%
    15:00 +21°C° 0,2 mm 4 m/s 755 mmHg 54%
    16:00 +21°C° 0,2 mm 3 m/s 755 mmHg 54%
    17:00 +20°C° 0,3 mm 3 m/s 755 mmHg 60%
    18:00 +19°C° 0,3 mm 3 m/s 755 mmHg 66%
    19:00 +18°C° 0,3 mm 2 m/s 756 mmHg 72%
    20:00 +17°C° 0 mm 2 m/s 756 mmHg 74%
    21:00 +16°C° 0 mm 2 m/s 756 mmHg 77%
    22:00 +15°C° 0 mm 2 m/s 756 mmHg 80%
    23:00 +14°C° 0 mm 2 m/s 757 mmHg 81%

    25 Juin, Lundi

    Heure Température Précipitation Vent Pression Humidité
    00:00 +14°C° 0 mm 2 m/s 757 mmHg 83%
    01:00 +13°C° 0 mm 2 m/s 757 mmHg 85%
    02:00 +13°C° 0 mm 1 m/s 757 mmHg 84%
    03:00 +13°C° 0 mm 1 m/s 757 mmHg 84%
    04:00 +11°C° 0 mm 0 m/s 757 mmHg 83%
    05:00 +14°C° 0 mm 1 m/s 758 mmHg 77%
    06:00 +16°C° 0 mm 1 m/s 758 mmHg 71%
    07:00 +18°C° 0 mm 1 m/s 758 mmHg 65%
    08:00 +20°C° 0 mm 1 m/s 758 mmHg 59%
    09:00 +22°C° 0 mm 1 m/s 758 mmHg 52%
    10:00 +23°C° 0 mm 1 m/s 758 mmHg 46%
    11:00 +24°C° 0 mm 1 m/s 758 mmHg 44%
    12:00 +24°C° 0 mm 1 m/s 758 mmHg 42%
    13:00 +25°C° 0 mm 1 m/s 758 mmHg 39%
    14:00 +25°C° 0 mm 1 m/s 758 mmHg 40%
    15:00 +25°C° 0 mm 2 m/s 758 mmHg 40%
    16:00 +25°C° 0 mm 2 m/s 758 mmHg 41%
    17:00 +24°C° 0 mm 1 m/s 758 mmHg 46%
    18:00 +23°C° 0 mm 1 m/s 758 mmHg 52%
    19:00 +22°C° 0 mm 1 m/s 758 mmHg 58%
    20:00 +21°C° 0 mm 1 m/s 759 mmHg 60%
    21:00 +20°C° 0 mm 1 m/s 759 mmHg 63%
    22:00 +18°C° 0 mm 1 m/s 760 mmHg 66%
    23:00 +18°C° 0 mm 1 m/s 760 mmHg 68%
    Voir plus